Location: Aula-Vintri
(58.3875°N, 22.4322°E)
Time: 06:32:59
(UTC+00:00)

Cosmos 2228 - Pass Details

Date: 13 October 2019
Orbit: 588 x 620 km, 82.5° (Epoch: 18 November)

Event Time Altitude Azimuth Distance (km) Brightness Sun altitude
Rises 17:37:36 0° 200° (SSW) 2,885 6.6 -17.2°
Reaches altitude 10° 17:39:51 10° 203° (SSW) 1,981 5.8 -17.5°
Maximum altitude 17:44:13 65° 286° (WNW) 680 3.4 -18.1°
Drops below altitude 10° 17:48:35 10° 9° (N) 1,980 5.7 -18.6°
Sets 17:50:49 0° 13° (NNE) 2,883 6.5 -18.9°
